TimeCDT,TemperatureF,Dew PointF,Humidity,Sea Level PressureIn,VisibilityMPH,Wind Direction,Wind SpeedMPH,Gust SpeedMPH,PrecipitationIn,Events,Conditions,WindDirDegrees,DateUTC
12:15 AM,70.2,63.7,80,30.06,10.0,South,10.4,18.4,N/A,,Clear,170,2013-10-29 05:15:00
12:35 AM,69.8,63.5,80,30.07,10.0,South,11.5,16.1,N/A,,Scattered Clouds,170,2013-10-29 05:35:00
12:55 AM,69.3,63.5,82,30.06,10.0,South,12.7,18.4,N/A,,Scattered Clouds,170,2013-10-29 05:55:00
1:15 AM,68.9,63.0,81,30.06,10.0,South,10.4,17.3,N/A,,Clear,170,2013-10-29 06:15:00
1:35 AM,68.5,62.8,82,30.06,10.0,South,12.7,17.3,N/A,,Clear,170,2013-10-29 06:35:00
1:55 AM,68.2,62.6,82,30.06,10.0,SSE,10.4,18.4,N/A,,Clear,160,2013-10-29 06:55:00
2:15 AM,68.0,62.6,83,30.05,10.0,SSE,12.7,18.4,N/A,,Clear,160,2013-10-29 07:15:00
2:35 AM,67.5,62.6,84,30.06,10.0,SSE,11.5,19.6,N/A,,Clear,160,2013-10-29 07:35:00
2:55 AM,67.5,62.6,84,30.06,10.0,SSE,12.7,16.1,N/A,,Clear,160,2013-10-29 07:55:00
3:15 AM,67.5,62.6,84,30.05,10.0,SSE,11.5,17.3,N/A,,Scattered Clouds,160,2013-10-29 08:15:00
3:35 AM,67.5,62.6,84,30.05,10.0,SSE,11.5,16.1,N/A,,Scattered Clouds,150,2013-10-29 08:35:00
3:55 AM,67.5,62.8,85,30.06,10.0,SSE,8.1,-,N/A,,Mostly Cloudy,160,2013-10-29 08:55:00
4:15 AM,67.5,63.1,86,30.06,10.0,South,8.1,-,N/A,,Mostly Cloudy,170,2013-10-29 09:15:00
4:35 AM,67.3,63.1,87,30.06,10.0,SSE,8.1,-,N/A,,Mostly Cloudy,160,2013-10-29 09:35:00
4:55 AM,67.3,63.5,88,30.06,10.0,South,6.9,-,N/A,,Mostly Cloudy,170,2013-10-29 09:55:00
5:15 AM,67.5,63.5,87,30.06,10.0,SSE,8.1,-,N/A,,Overcast,160,2013-10-29 10:15:00
5:35 AM,67.5,63.7,88,30.07,10.0,South,6.9,-,N/A,,Overcast,170,2013-10-29 10:35:00
6:15 AM,68.0,63.9,87,30.06,10.0,SSE,10.4,-,N/A,,Overcast,150,2013-10-29 11:15:00
6:35 AM,68.0,64.0,87,30.06,10.0,SSE,10.4,-,N/A,,Overcast,160,2013-10-29 11:35:00
7:15 AM,68.2,64.4,88,30.07,10.0,South,9.2,-,N/A,,Overcast,170,2013-10-29 12:15:00
7:35 AM,68.0,64.4,88,30.07,7.0,South,8.1,-,N/A,,Overcast,170,2013-10-29 12:35:00
8:15 AM,68.0,64.8,89,30.08,4.0,South,8.1,-,N/A,,Overcast,170,2013-10-29 13:15:00
8:35 AM,68.0,65.3,91,30.07,4.0,SSE,10.4,-,N/A,,Overcast,160,2013-10-29 13:35:00
8:55 AM,68.0,65.3,91,30.07,5.0,South,9.2,-,N/A,,Overcast,170,2013-10-29 13:55:00
9:15 AM,68.4,65.7,91,30.07,7.0,SSE,13.8,18.4,N/A,,Overcast,160,2013-10-29 14:15:00
9:35 AM,68.9,66.2,91,30.09,10.0,South,12.7,18.4,N/A,,Overcast,170,2013-10-29 14:35:00
9:55 AM,69.1,66.2,91,30.09,10.0,South,9.2,17.3,N/A,,Overcast,170,2013-10-29 14:55:00
10:15 AM,69.8,66.6,89,30.09,7.0,South,9.2,-,N/A,,Overcast,170,2013-10-29 15:15:00
10:35 AM,70.3,66.9,89,30.09,10.0,South,11.5,-,N/A,,Overcast,180,2013-10-29 15:35:00
10:55 AM,70.9,67.1,88,30.08,10.0,South,11.5,16.1,N/A,,Overcast,170,2013-10-29 15:55:00
11:15 AM,72.3,67.3,84,30.08,10.0,South,10.4,-,N/A,,Overcast,170,2013-10-29 16:15:00
11:35 AM,73.6,67.3,81,30.08,10.0,South,15.0,20.7,N/A,,Overcast,180,2013-10-29 16:35:00
11:55 AM,74.5,67.3,78,30.08,10.0,South,8.1,-,N/A,,Overcast,180,2013-10-29 16:55:00
12:15 PM,75.0,67.3,77,30.08,10.0,South,9.2,17.3,N/A,,Overcast,170,2013-10-29 17:15:00
12:35 PM,74.8,67.5,78,30.07,10.0,South,8.1,-,N/A,,Overcast,170,2013-10-29 17:35:00
12:55 PM,76.1,68.2,76,30.06,10.0,SSE,5.8,-,N/A,,Overcast,160,2013-10-29 17:55:00
1:15 PM,76.3,66.6,72,30.06,10.0,South,10.4,17.3,N/A,,Overcast,180,2013-10-29 18:15:00
1:35 PM,77.0,67.1,71,30.04,10.0,South,12.7,17.3,N/A,,Mostly Cloudy,190,2013-10-29 18:35:00
1:55 PM,77.7,66.9,69,30.04,10.0,South,12.7,16.1,N/A,,Mostly Cloudy,180,2013-10-29 18:55:00
2:15 PM,77.5,67.1,70,30.03,10.0,South,12.7,17.3,N/A,,Overcast,180,2013-10-29 19:15:00
2:35 PM,76.3,68.0,75,30.02,10.0,SSE,8.1,-,N/A,,Overcast,150,2013-10-29 19:35:00
2:55 PM,76.5,67.5,74,30.02,10.0,SSE,9.2,-,N/A,,Overcast,160,2013-10-29 19:55:00
3:15 PM,76.5,66.4,71,30.02,10.0,South,11.5,19.6,N/A,,Overcast,180,2013-10-29 20:15:00
3:35 PM,77.2,66.7,70,30.01,10.0,South,10.4,17.3,N/A,,Overcast,170,2013-10-29 20:35:00
3:55 PM,77.0,67.1,71,30.01,10.0,South,11.5,16.1,N/A,,Mostly Cloudy,170,2013-10-29 20:55:00
4:15 PM,76.8,66.7,71,30.02,10.0,South,10.4,-,N/A,,Scattered Clouds,170,2013-10-29 21:15:00
4:35 PM,76.3,67.1,73,30.01,10.0,SSE,9.2,-,N/A,,Overcast,160,2013-10-29 21:35:00
4:55 PM,76.1,67.1,74,30.02,10.0,SSE,10.4,-,N/A,,Overcast,160,2013-10-29 21:55:00
5:15 PM,75.9,67.3,74,30.02,10.0,SSE,6.9,-,N/A,,Overcast,150,2013-10-29 22:15:00
5:35 PM,75.6,67.3,75,30.02,10.0,SSE,5.8,-,N/A,,Scattered Clouds,150,2013-10-29 22:35:00
5:55 PM,75.2,67.6,77,30.02,10.0,SE,6.9,-,N/A,,Scattered Clouds,130,2013-10-29 22:55:00
6:15 PM,74.7,67.8,79,30.01,10.0,ESE,5.8,-,N/A,,Scattered Clouds,120,2013-10-29 23:15:00
6:35 PM,74.3,68.0,81,30.02,10.0,SE,4.6,-,N/A,,Mostly Cloudy,130,2013-10-29 23:35:00
6:55 PM,74.1,68.0,81,30.02,10.0,SE,4.6,-,N/A,,Overcast,130,2013-10-29 23:55:00
7:15 PM,73.6,68.0,83,30.02,10.0,SE,9.2,-,N/A,,Mostly Cloudy,130,2013-10-30 00:15:00
7:35 PM,73.4,68.0,83,30.03,10.0,SE,8.1,-,N/A,,Mostly Cloudy,130,2013-10-30 00:35:00
7:55 PM,72.9,67.3,83,30.03,10.0,SE,8.1,-,N/A,,Mostly Cloudy,140,2013-10-30 00:55:00
8:15 PM,72.7,66.6,81,30.04,10.0,SSE,5.8,-,N/A,,Clear,150,2013-10-30 01:15:00
8:35 PM,72.9,65.8,79,30.04,10.0,SSE,8.1,-,N/A,,Clear,150,2013-10-30 01:35:00
8:55 PM,73.4,66.2,78,30.04,10.0,SSE,10.4,-,N/A,,Scattered Clouds,150,2013-10-30 01:55:00
9:15 PM,73.0,66.2,79,30.03,10.0,SSE,11.5,16.1,N/A,,Scattered Clouds,150,2013-10-30 02:15:00
9:35 PM,73.0,66.2,79,30.04,10.0,SSE,13.8,18.4,N/A,,Scattered Clouds,150,2013-10-30 02:35:00
9:55 PM,73.0,66.2,79,30.05,10.0,SSE,10.4,18.4,N/A,,Scattered Clouds,160,2013-10-30 02:55:00
10:15 PM,72.7,66.2,80,30.04,10.0,SSE,11.5,18.4,N/A,,Clear,150,2013-10-30 03:15:00
10:35 PM,72.5,66.2,81,30.04,10.0,SSE,9.2,18.4,N/A,,Clear,150,2013-10-30 03:35:00
10:55 PM,72.5,65.8,80,30.05,10.0,SSE,11.5,17.3,N/A,,Clear,160,2013-10-30 03:55:00
11:15 PM,72.5,65.7,79,30.04,10.0,SSE,11.5,18.4,N/A,,Clear,150,2013-10-30 04:15:00
11:35 PM,72.5,65.5,79,30.04,10.0,SSE,10.4,18.4,N/A,,Clear,150,2013-10-30 04:35:00
11:55 PM,72.5,65.3,78,30.05,10.0,South,15.0,20.7,N/A,,Clear,170,2013-10-30 04:55:00